Miscellaneous Local Product
Issued by NWS Hastings, NE

Home | Current Version | Previous Version | Text Only | Print | Product List | Glossary Off
Versions: 1 2 3 4 5 6 7 8 9 10 11 12 13 14 15 16 17 18 19 20 21 22 23 24 25 26 27 28 29 30 31 32 33 34 35 36 37 38 39 40 41 42 43 44 45 46 47 48 49 50

000
AXUS43 KGID 010902
MISGRI

GID CWA HOURLY WEATHER ROUNDUP
NATIONAL WEATHER SERVICE HASTINGS NE
400 AM CDT WED JUL 01 2015

NOTE: "FAIR" INDICATES FEW OR NO CLOUDS BELOW 12,000 FEET WITH NO
SIGNIFICANT WEATHER AND/OR OBSTRUCTIONS TO VISIBILITY.

...SOUTH CENTRAL NEBRASKA...

CITY           SKY/WX    TMP DP  RH WIND       PRES   REMARKS
GRAND ISLAND   PTCLDY    68  62  81 E10       29.82S
HASTINGS       PTCLDY    69  63  81 SE12      29.80F
KEARNEY        PTCLDY    66  61  82 E7        29.81S
ORD            PTCLDY    65  61  87 CALM      29.82F
YORK           PTCLDY    66  64  94 SE13G20   29.82S
AURORA         PTCLDY    69  64  84 SE14      29.81S
LEXINGTON      CLEAR     65  63  92 NE3       29.81F FOG
HOLDREGE       PTCLDY    67  64  89 E8        29.80F
HEBRON         MOCLDY    71  62  71 E9G18     29.82F

...NEBRASKA PANHANDLE...

CITY           SKY/WX    TMP DP  RH WIND       PRES   REMARKS
CHADRON        PTCLDY    67  64  90 S6        29.95F
ALLIANCE       PTCLDY    67  60  78 NW8       29.97S
SCOTTSBLUFF    CLEAR     65  58  78 NW5       29.99F
SIDNEY         PTCLDY    65  58  78 NW13      30.01R

...WESTERN AND NORTH CENTRAL NEBRASKA...

CITY           SKY/WX    TMP DP  RH WIND       PRES   REMARKS
VALENTINE      CLEAR     62  60  93 E3        29.89S
AINSWORTH      CLEAR     62  60  96 CALM      29.89R
ONEILL         PTCLDY    64  63  97 NE5       29.87S
BROKEN BOW     PTCLDY    64  61  90 E3        29.83F
IMPERIAL       CLOUDY    75  61  61 N10       29.87S
NORTH PLATTE   CLEAR     66  62  87 N5        29.88R
MCCOOK         CLOUDY    74  58  57 VRB5      29.80F

...EASTERN NEBRASKA...

CITY           SKY/WX    TMP DP  RH WIND       PRES   REMARKS
NORFOLK        PTCLDY    65  64  97 E5        29.84F FOG
SO SIOUX CITY  MOCLDY    66  63  90 E6        29.86F FOG
TEKAMAH        MOCLDY    67  66  97 E3        29.84F FOG
COLUMBUS       MOCLDY   N/A N/A N/A NE6       29.82S
ALBION         PTCLDY    65  61  85 E5        29.83F
OMAHA EPPLEY   CLOUDY    67  66  97 SE6       29.86R
OFFUTT AFB     MOCLDY    67  65  95 E6        29.84S
MILLARD        MOCLDY    67  66  94 CALM      29.84F
LINCOLN        CLOUDY    69  66  90 N9        29.84R
NEBRASKA CITY  CLOUDY    67  65  93 S10       29.82S
BEATRICE       CLOUDY    68  64  85 SE17G26   29.81F
FALLS CITY     LGT RAIN  68  66  93 SE9       29.88F

...NORTHERN KANSAS...

CITY           SKY/WX    TMP DP  RH WIND       PRES   REMARKS
GOODLAND       CLOUDY    72  55  55 SW7       29.91F
HILL CITY      MOCLDY    83  54  36 SW13      29.80F
NORTON         SUNNY     79  50  36 CALM      29.80F
PHILLIPSBURG   PTCLDY    88  52  29 W5G22     29.83R
SMITH CENTER   CLEAR     73  59  60 CALM      29.82R
HAYS           MOCLDY    79  55  44 SW14      29.83S
RUSSELL        MOCLDY    80  58  46 SW21G29   29.79F
CONCORDIA      CLOUDY    75  66  73 E3        29.81F
SALINA         CLOUDY    84  59  42 SW13      29.79F
TOPEKA         CLOUDY    74  69  85 N16       29.87R



USA.gov is the U.S. government's official web portal to all federal, state and local government web resources and services.